GW0913 Weather Reports


time (UTC)temp
C
wind
direction
speed
KPH
gust
KPH
rain 1hr
cm
rain 24hr
cm
rain mn
cm
humidity
%
barometer
mb
20260906091053 22 11 8.0 14.5 0.00 0.00 0.00 93 1013.9
20260906090551 22 34 4.8 14.5 0.00 0.00 0.00 93 1014.0
20260906090115 22 25 8.0 14.5 0.00 0.00 0.00 93 1013.9
20260906085553 22 42 6.4 16.1 0.00 0.00 0.00 93 1013.8
20260906085052 22 75 4.8 16.1 0.00 0.00 0.00 94 1013.7
20260906084610 22 51 6.4 12.9 0.00 0.00 0.00 93 1013.7
20260906084053 22 15 3.2 11.3 0.00 0.00 0.00 94 1013.7
20260906083552 22 34 4.8 12.9 0.00 0.00 0.00 94 1013.7
20260906083059 22 8 4.8 12.9 0.00 0.00 0.00 94 1013.7
20260906082552 22 63 4.8 12.9 0.00 0.00 0.00 94 1013.7
20260906082055 22 15 1.6 11.3 0.00 0.00 0.00 94 1013.6
20260906081607 22 12 3.2 8.0 0.00 0.00 0.00 94 1013.5
20260906081055 22 0 3.2 8.0 0.00 0.00 0.00 94 1013.5
20260906080552 22 360 1.6 9.7 0.00 0.00 0.00 94 1013.6
20260906075552 22 359 4.8 11.3 0.00 0.00 0.00 94 1013.5
20260906075053 22 23 4.8 11.3 0.00 0.00 0.00 94 1013.6
20260906074607 22 7 4.8 11.3 0.00 0.00 0.00 94 1013.5
20260906074052 22 4 3.2 6.4 0.00 0.00 0.00 93 1013.6
20260906073556 22 6 3.2 6.4 0.00 0.00 0.00 93 1013.5
20260906073109 22 13 1.6 9.7 0.00 0.00 0.00 93 1013.6
20260906072554 22 0 3.2 9.7 0.00 0.00 0.00 93 1013.7
20260906072059 22 26 1.6 8.0 0.00 0.00 0.00 93 1013.7
20260906071609 22 21 0.0 8.0 0.00 0.00 0.00 93 1013.8
20260906071053 22 7 1.6 8.0 0.00 0.00 0.00 93 1013.9
20260906070553 22 29 0.0 8.0 0.00 0.00 0.00 92 1013.9
20260906070125 22 32 3.2 8.0 0.00 0.00 0.00 92 1013.8
20260906065555 22 0 0.0 4.8 0.00 0.00 0.00 92 1013.7
20260906065053 23 27 0.0 9.7 0.00 0.00 0.00 91 1013.7
20260906064602 23 359 1.6 9.7 0.00 0.00 0.00 91 1013.8
20260906064053 23 18 0.0 4.8 0.00 0.00 0.00 91 1013.9
20260906063552 23 18 1.6 4.8 0.00 0.00 0.00 90 1013.8
20260906063058 23 14 0.0 3.2 0.00 0.00 0.00 90 1013.9
20260906062552 23 0 0.0 6.4 0.00 0.00 0.00 90 1013.8
20260906062052 23 1 1.6 9.7 0.00 0.00 0.00 89 1013.9
20260906061635 23 21 1.6 9.7 0.00 0.00 0.00 89 1013.9
20260906061052 23 12 3.2 9.7 0.00 0.00 0.00 89 1014.1
20260906060555 23 360 1.6 6.4 0.00 0.00 0.00 89 1014.0
20260906060104 23 34 3.2 6.4 0.00 0.00 0.00 89 1013.9
20260906055556 23 3 0.0 8.0 0.00 0.00 0.00 88 1013.8
20260906055052 23 44 1.6 8.0 0.00 0.00 0.00 88 1013.8
20260906054602 23 12 1.6 4.8 0.00 0.00 0.00 88 1013.8
20260906054053 24 0 0.0 8.0 0.00 0.00 0.00 88 1013.8
20260906053552 24 0 0.0 8.0 0.00 0.00 0.00 88 1013.8
20260906053102 24 360 1.6 8.0 0.00 0.00 0.00 87 1013.8
20260906052552 24 8 1.6 9.7 0.00 0.00 0.00 87 1014.0
20260906052053 24 1 0.0 9.7 0.00 0.00 0.00 87 1013.9
20260906051604 24 15 4.8 9.7 0.00 0.00 0.00 87 1013.8
20260906051052 24 9 1.6 6.4 0.00 0.00 0.00 87 1013.6
20260906050552 24 0 1.6 6.4 0.00 0.00 0.00 87 1013.6
20260906050115 24 0 0.0 4.8 0.00 0.00 0.00 87 1013.6
20260906045553 24 40 0.0 6.4 0.00 0.00 0.00 87 1013.5
20260906045053 24 0 1.6 6.4 0.00 0.00 0.00 86 1013.5
20260906044603 25 32 1.6 6.4 0.00 0.00 0.00 86 1013.5
20260906044053 25 0 1.6 4.8 0.00 0.00 0.00 86 1013.3
20260906043552 25 348 1.6 4.8 0.00 0.00 0.00 85 1013.4
20260906043109 25 0 0.0 0.0 0.00 0.00 0.00 84 1013.1
20260906042552 25 0 0.0 3.2 0.00 0.00 0.00 84 1013.1
20260906042052 25 0 0.0 3.2 0.00 0.00 0.00 84 1013.2
20260906041555 25 25 0.0 9.7 0.00 0.00 0.00 83 1013.2
20260906041053 25 25 3.2 9.7 0.00 0.00 0.00 83 1013.1
20260906040552 25 27 4.8 9.7 0.00 0.00 0.00 83 1013.2
20260906040119 26 22 1.6 8.0 0.00 0.00 0.00 83 1013.1
20260906035553 26 26 1.6 6.4 0.00 0.00 0.00 83 1013.1
20260906035052 26 0 1.6 9.7 0.00 0.00 0.00 82 1013.2
20260906034559 26 0 0.0 12.9 0.00 0.00 0.00 82 1013.2
20260906034052 26 58 4.8 14.5 0.00 0.00 0.00 82 1013.2
20260906033552 26 1 3.2 14.5 0.00 0.00 0.00 82 1013.3
20260906033057 26 5 0.0 8.0 0.00 0.00 0.00 82 1013.4
20260906032555 26 6 3.2 8.0 0.00 0.00 0.00 82 1013.4
20260906032056 26 358 0.0 9.7 0.00 0.00 0.00 81 1013.3
20260906031603 26 2 3.2 12.9 0.00 0.00 0.00 81 1013.3
20260906031052 27 22 4.8 12.9 0.00 0.00 0.00 81 1013.2
20260906030552 27 32 4.8 12.9 0.00 0.00 0.00 80 1013.1
20260906030110 27 9 4.8 12.9 0.00 0.00 0.00 80 1013.2
20260906025552 27 30 1.6 8.0 0.00 0.00 0.00 80 1013.2
20260906025053 27 41 1.6 8.0 0.00 0.00 0.00 80 1013.1
20260906024603 27 315 0.0 8.0 0.00 0.00 0.00 79 1013.0
20260906024056 27 41 0.0 6.4 0.00 0.00 0.00 79 1013.0
20260906023555 27 1 0.0 8.0 0.00 0.00 0.00 79 1013.0
20260906023131 27 0 1.6 8.0 0.00 0.00 0.00 79 1012.9
20260906022552 27 1 1.6 11.3 0.00 0.00 0.00 78 1012.8
20260906022053 27 0 1.6 11.3 0.00 0.00 0.00 79 1012.7
20260906021608 27 275 3.2 9.7 0.00 0.00 0.00 79 1012.6
20260906021052 27 13 1.6 14.5 0.00 0.00 0.00 79 1012.5
20260906020553 27 271 4.8 14.5 0.00 0.00 0.00 79 1012.6
20260906020104 27 348 3.2 14.5 0.00 0.00 0.00 80 1012.7
20260906015552 27 335 3.2 8.0 0.00 0.00 0.00 82 1012.7
20260906015052 27 2 1.6 6.4 0.00 0.00 0.00 83 1012.7
20260906014626 27 20 3.2 6.4 0.00 0.00 0.00 84 1012.5
20260906014052 27 339 1.6 6.4 0.00 0.00 0.00 85 1012.3
20260906013552 27 0 0.0 0.0 0.00 0.00 0.00 85 1012.0
20260906013100 27 0 0.0 1.6 0.00 0.00 0.00 84 1012.0
20260906012552 27 0 0.0 1.6 0.00 0.00 0.00 84 1011.9
20260906012052 27 0 0.0 1.6 0.00 0.00 0.00 84 1011.9
20260906011602 27 0 0.0 1.6 0.00 0.00 0.00 83 1011.9
20260906011052 27 0 0.0 1.6 0.00 0.00 0.00 83 1011.9
20260906010552 27 0 0.0 4.8 0.00 0.00 0.00 83 1011.8
20260906010107 28 0 1.6 4.8 0.00 0.00 0.00 82 1011.7
20260906005552 28 307 0.0 0.0 0.00 0.00 0.00 82 1011.7
20260906005052 28 0 0.0 1.6 0.00 0.00 0.00 81 1011.5
20260906004614 28 0 0.0 1.6 0.00 0.00 0.00 81 1011.6
20260906004055 28 0 0.0 0.0 0.00 0.00 0.00 81 1011.6
20260906003553 28 0 0.0 0.0 0.00 0.00 0.00 80 1011.6
20260906003113 29 0 0.0 0.0 0.00 0.00 0.00 79 1011.7
20260906002552 29 0 0.0 0.0 0.00 0.00 0.00 78 1011.8
20260906002053 30 0 0.0 0.0 0.00 0.00 0.00 77 1011.8
20260906001603 30 0 0.0 0.0 0.00 0.00 0.00 75 1011.8
20260906001052 30 0 0.0 1.6 0.00 0.00 0.00 73 1011.8
20260906000552 30 0 0.0 1.6 0.00 0.00 0.00 72 1011.9
20260906000111 31 0 0.0 4.8 0.00 0.00 0.00 71 1011.9
20260905235552 31 0 0.0 8.0 0.00 0.00 0.00 69 1012.0
20260905235052 31 285 1.6 8.0 0.00 0.00 0.00 69 1012.0
20260905234604 31 331 1.6 8.0 0.00 0.00 0.00 68 1012.0
20260905234053 32 328 1.6 6.4 0.00 0.00 0.00 67 1011.9
20260905233553 32 309 3.2 9.7 0.00 0.00 0.00 66 1012.0
20260905233109 32 321 3.2 11.3 0.00 0.00 0.00 66 1011.9
20260905232552 32 316 4.8 11.3 0.00 0.00 0.00 66 1011.9
20260905232052 32 314 3.2 8.0 0.00 0.00 0.00 66 1011.9
20260905231602 32 309 3.2 8.0 0.00 0.00 0.00 65 1011.9
20260905231053 32 328 3.2 8.0 0.00 0.00 0.00 64 1011.9
20260905230552 32 328 3.2 14.5 0.00 0.00 0.00 65 1011.8
20260905230104 32 338 6.4 14.5 0.00 0.00 0.00 64 1011.6
20260905225555 32 312 8.0 14.5 0.00 0.00 0.00 64 1011.6
20260905225052 32 341 6.4 17.7 0.00 0.00 0.00 64 1011.5
20260905224608 33 325 8.0 17.7 0.00 0.00 0.00 63 1011.6
20260905224053 33 326 3.2 11.3 0.00 0.00 0.00 64 1011.6
20260905223552 33 345 3.2 11.3 0.00 0.00 0.00 64 1011.6
20260905223102 33 354 4.8 11.3 0.00 0.00 0.00 64 1011.5
20260905222553 33 319 4.8 11.3 0.00 0.00 0.00 63 1011.4
20260905222055 33 347 4.8 12.9 0.00 0.00 0.00 63 1011.5
20260905221603 33 336 3.2 17.7 0.00 0.00 0.00 63 1011.4
20260905221053 33 334 8.0 17.7 0.00 0.00 0.00 62 1011.3
20260905220553 33 314 8.0 16.1 0.00 0.00 0.00 61 1011.2
20260905220118 33 21 4.8 14.5 0.00 0.00 0.00 62 1011.2
20260905215553 33 12 4.8 14.5 0.00 0.00 0.00 62 1011.2
20260905215052 33 331 6.4 14.5 0.00 0.00 0.00 61 1011.3
20260905214602 33 335 8.0 14.5 0.00 0.00 0.00 61 1011.5
20260905214052 33 350 4.8 14.5 0.00 0.00 0.00 60 1011.5
20260905213552 33 311 6.4 12.9 0.00 0.00 0.00 61 1011.6
20260905213108 33 359 3.2 12.9 0.00 0.00 0.00 61 1011.4
20260905212553 33 347 3.2 14.5 0.00 0.00 0.00 60 1011.5
20260905212052 33 340 6.4 14.5 0.00 0.00 0.00 60 1011.5
20260905211604 34 338 6.4 14.5 0.00 0.00 0.00 59 1011.6
20260905211053 34 325 8.0 14.5 0.00 0.00 0.00 59 1011.5
20260905210552 34 7 1.6 11.3 0.00 0.00 0.00 60 1011.6
20260905210104 34 351 6.4 11.3 0.00 0.00 0.00 59 1011.6
20260905205552 34 314 4.8 19.3 0.00 0.00 0.00 59 1011.8
20260905205053 34 301 3.2 19.3 0.00 0.00 0.00 58 1011.8
20260905204602 34 343 8.0 19.3 0.00 0.00 0.00 58 1012.0
20260905204052 34 326 9.7 19.3 0.00 0.00 0.00 57 1012.0
20260905203556 34 319 6.4 16.1 0.00 0.00 0.00 58 1012.1
20260905203102 35 327 8.0 12.9 0.00 0.00 0.00 57 1012.2
20260905202552 35 320 6.4 16.1 0.00 0.00 0.00 57 1012.2
20260905202053 35 342 6.4 19.3 0.00 0.00 0.00 55 1012.3
20260905201557 35 315 8.0 19.3 0.00 0.00 0.00 56 1012.4
20260905201052 35 330 1.6 12.9 0.00 0.00 0.00 57 1012.4
20260905200552 35 0 3.2 11.3 0.00 0.00 0.00 56 1012.4
20260905200100 35 333 3.2 9.7 0.00 0.00 0.00 55 1012.4
20260905195553 36 308 3.2 9.7 0.00 0.00 0.00 57 1012.5
20260905195056 36 301 1.6 8.0 0.00 0.00 0.00 56 1012.3
20260905194604 36 299 0.0 12.9 0.00 0.00 0.00 58 1012.4
20260905194053 35 0 4.8 12.9 0.00 0.00 0.00 59 1012.5
20260905193554 35 254 3.2 9.7 0.00 0.00 0.00 58 1012.6
20260905193101 35 323 4.8 9.7 0.00 0.00 0.00 57 1012.6
20260905192553 35 234 3.2 11.3 0.00 0.00 0.00 58 1012.6
20260905192056 35 0 3.2 11.3 0.00 0.00 0.00 58 1012.7
20260905191604 35 329 1.6 8.0 0.00 0.00 0.00 59 1012.8
20260905191052 34 0 0.0 6.4 0.00 0.00 0.00 64 1012.8
20260905190554 33 186 1.6 9.7 0.00 0.00 0.00 60 1012.9
20260905190113 33 316 1.6 9.7 0.00 0.00 0.00 60 1013.0
20260905185553 33 7 0.0 9.7 0.00 0.00 0.00 61 1013.1
20260905185053 33 187 6.4 9.7 0.00 0.00 0.00 62 1013.1
20260905184604 33 199 0.0 8.0 0.00 0.00 0.00 61 1013.2
20260905184053 33 152 0.0 12.9 0.00 0.00 0.00 61 1013.3
20260905183553 33 338 3.2 12.9 0.00 0.00 0.00 61 1013.4
20260905183124 33 175 0.0 11.3 0.00 0.00 0.00 63 1013.5
20260905182552 33 188 3.2 11.3 0.00 0.00 0.00 60 1013.5
20260905182053 33 0 0.0 6.4 0.00 0.00 0.00 62 1013.6
20260905181602 33 0 1.6 6.4 0.00 0.00 0.00 63 1013.6
20260905181056 33 0 1.6 8.0 0.00 0.00 0.00 60 1013.5
20260905180552 33 231 1.6 8.0 0.00 0.00 0.00 62 1013.6
20260905180100 32 0 0.0 8.0 0.00 0.00 0.00 64 1013.6
20260905175553 32 297 1.6 8.0 0.00 0.00 0.00 62 1013.6
20260905175053 32 182 1.6 12.9 0.00 0.00 0.00 64 1013.7
20260905174600 32 180 3.2 12.9 0.00 0.00 0.00 63 1013.8
20260905174052 32 149 3.2 11.3 0.00 0.00 0.00 61 1013.9
20260905173553 32 208 3.2 11.3 0.00 0.00 0.00 63 1013.8
20260905173101 31 171 4.8 14.5 0.00 0.00 0.00 65 1013.9
20260905172552 31 145 1.6 14.5 0.00 0.00 0.00 65 1014.0
20260905172052 31 206 6.4 14.5 0.00 0.00 0.00 62 1014.0
20260905171605 31 224 4.8 11.3 0.00 0.00 0.00 62 1014.0
20260905171053 31 191 4.8 11.3 0.00 0.00 0.00 65 1014.2
20260905170553 31 181 3.2 11.3 0.00 0.00 0.00 64 1014.3
20260905170100 31 167 4.8 11.3 0.00 0.00 0.00 66 1014.5
20260905165552 31 190 3.2 12.9 0.00 0.00 0.00 64 1014.6
20260905165052 31 221 4.8 12.9 0.00 0.00 0.00 66 1014.7
20260905164605 31 214 4.8 11.3 0.00 0.00 0.00 65 1014.9
20260905164053 31 169 3.2 11.3 0.00 0.00 0.00 68 1014.8
20260905163552 30 0 3.2 11.3 0.00 0.00 0.00 68 1014.8
20260905163056 30 191 3.2 9.7 0.00 0.00 0.00 65 1014.8
20260905162553 30 138 3.2 11.3 0.00 0.00 0.00 65 1014.7
20260905162053 30 360 3.2 14.5 0.00 0.00 0.00 66 1014.7
20260905161600 30 122 4.8 14.5 0.00 0.00 0.00 67 1014.7
20260905161053 29 176 4.8 14.5 0.00 0.00 0.00 68 1014.7
20260905160555 29 153 4.8 14.5 0.00 0.00 0.00 68 1014.6
20260905160122 29 169 6.4 12.9 0.00 0.00 0.00 67 1014.8
20260905155553 29 198 4.8 11.3 0.00 0.00 0.00 68 1014.9
20260905155052 28 159 3.2 16.1 0.00 0.00 0.00 67 1015.1
20260905154601 28 222 3.2 16.1 0.00 0.00 0.00 68 1015.3
20260905154054 28 195 3.2 9.7 0.00 0.00 0.00 68 1015.2
20260905153552 28 119 1.6 12.9 0.00 0.00 0.00 70 1015.1
20260905153112 28 0 1.6 12.9 0.00 0.00 0.00 69 1015.1
20260905152553 27 265 1.6 12.9 0.00 0.00 0.00 72 1015.1
20260905152056 27 181 3.2 14.5 0.00 0.00 0.00 70 1015.1
20260905151609 27 143 4.8 14.5 0.00 0.00 0.00 71 1015.0
20260905151052 27 179 4.8 12.9 0.00 0.00 0.00 71 1015.0
20260905150552 27 158 3.2 14.5 0.00 0.00 0.00 71 1015.0
20260905150057 27 203 6.4 14.5 0.00 0.00 0.00 71 1015.0
20260905145552 27 171 8.0 14.5 0.00 0.00 0.00 72 1015.1
20260905145055 26 148 4.8 12.9 0.00 0.00 0.00 76 1015.2
20260905144556 26 150 3.2 12.9 0.00 0.00 0.00 75 1015.3
20260905144052 26 184 4.8 12.9 0.00 0.00 0.00 75 1015.3
20260905143552 26 150 1.6 12.9 0.00 0.00 0.00 75 1015.4
20260905143107 26 105 6.4 12.9 0.00 0.00 0.00 76 1015.6
20260905142556 26 122 1.6 14.5 0.00 0.00 0.00 77 1015.5
20260905142054 26 243 6.4 17.7 0.00 0.00 0.00 76 1015.3
20260905141600 26 144 6.4 17.7 0.00 0.00 0.00 75 1015.3
20260905141052 26 186 3.2 9.7 0.00 0.00 0.00 76 1015.3
20260905140554 26 230 3.2 11.3 0.00 0.00 0.00 78 1015.3
20260905140106 25 214 0.0 11.3 0.00 0.00 0.00 79 1015.5
20260905135554 25 113 4.8 24.1 0.00 0.00 0.00 78 1015.5
20260905135054 25 187 4.8 24.1 0.00 0.00 0.00 78 1015.4
20260905134605 25 137 1.6 16.1 0.00 0.00 0.00 80 1015.3
20260905134053 25 0 1.6 16.1 0.00 0.00 0.00 81 1015.4
20260905133553 25 0 4.8 16.1 0.00 0.00 0.00 81 1015.4
20260905133107 25 0 3.2 19.3 0.00 0.00 0.00 84 1015.3
20260905132553 25 104 4.8 19.3 0.00 0.00 0.00 84 1015.2
20260905132055 25 162 6.4 19.3 0.00 0.00 0.00 84 1015.3
20260905131610 25 81 6.4 19.3 0.00 0.00 0.00 84 1015.5
20260905131053 25 156 6.4 22.5 0.00 0.00 0.00 84 1015.7
20260905130553 25 157 6.4 22.5 0.00 0.00 0.00 84 1015.5
20260905130115 25 0 4.8 12.9 0.00 0.00 0.00 86 1015.4
20260905125553 25 122 3.2 20.9 0.00 0.00 0.00 89 1015.3
20260905125053 24 6 6.4 20.9 0.00 0.00 0.00 90 1015.3
20260905124602 24 111 6.4 14.5 0.00 0.00 0.00 93 1015.3
20260905124054 23 46 3.2 12.9 0.00 0.00 0.00 94 1015.4
20260905123554 23 127 1.6 12.9 0.00 0.00 0.00 95 1014.9
20260905123104 23 72 3.2 19.3 0.00 0.00 0.00 96 1015.2
20260905122553 23 64 8.0 19.3 0.00 0.00 0.00 97 1015.0
20260905122054 22 80 4.8 16.1 0.00 0.00 0.00 98 1015.1
20260905121602 22 0 0.0 0.0 0.00 0.00 0.00 97 1014.4
20260905121053 22 0 0.0 0.0 0.00 0.00 0.00 97 1014.2
20260905120555 22 0 0.0 0.0 0.00 0.00 0.00 97 1014.2
20260905120114 22 0 0.0 0.0 0.00 0.00 0.00 97 1014.1
20260905115557 22 0 0.0 1.6 0.00 0.00 0.00 97 1014.1
20260905115054 22 0 0.0 1.6 0.00 0.00 0.00 97 1014.0
20260905114604 22 0 0.0 0.0 0.00 0.00 0.00 96 1013.9
20260905114053 22 0 0.0 0.0 0.00 0.00 0.00 96 1013.9
20260905113554 22 0 0.0 0.0 0.00 0.00 0.00 96 1013.9
20260905113106 22 0 0.0 0.0 0.00 0.00 0.00 96 1013.9
20260905112558 22 0 0.0 0.0 0.00 0.00 0.00 96 1013.8
20260905112053 22 0 0.0 0.0 0.00 0.00 0.00 97 1013.6
20260905111612 22 0 0.0 0.0 0.00 0.00 0.00 97 1013.7
20260905111053 22 0 0.0 1.6 0.00 0.00 0.00 96 1013.5
20260905110558 22 0 0.0 1.6 0.00 0.00 0.00 96 1013.5
20260905110100 22 0 0.0 1.6 0.00 0.00 0.00 96 1013.4
20260905105553 23 0 0.0 1.6 0.00 0.00 0.00 96 1013.5
20260905105052 23 0 0.0 0.0 0.00 0.00 0.00 96 1013.5
20260905104558 23 0 0.0 0.0 0.00 0.00 0.00 96 1013.5
20260905104052 23 0 0.0 1.6 0.00 0.00 0.00 96 1013.6
20260905103552 23 0 0.0 1.6 0.00 0.00 0.00 96 1013.6
20260905103057 23 0 0.0 0.0 0.00 0.00 0.00 96 1013.7
20260905102554 23 0 0.0 1.6 0.00 0.00 0.00 96 1013.7
20260905102053 23 0 0.0 1.6 0.00 0.00 0.00 96 1013.7
20260905101606 23 0 0.0 1.6 0.00 0.00 0.00 96 1013.7
20260905101053 23 0 0.0 0.0 0.00 0.00 0.00 96 1013.7
20260905100553 23 0 0.0 0.0 0.00 0.00 0.00 96 1013.8
20260905100057 23 0 0.0 0.0 0.00 0.00 0.00 96 1013.6
20260905095552 23 0 0.0 0.0 0.00 0.00 0.00 96 1013.6
20260905095055 23 0 0.0 0.0 0.00 0.00 0.00 96 1013.6
20260905094556 23 0 0.0 0.0 0.00 0.00 0.00 97 1013.5
20260905094052 23 0 0.0 0.0 0.00 0.00 0.00 96 1013.5
20260905093552 23 0 0.0 1.6 0.00 0.00 0.00 96 1013.4
20260905093101 23 0 0.0 1.6 0.00 0.00 0.00 96 1013.4
20260905092555 23 0 0.0 1.6 0.00 0.00 0.00 96 1013.4
20260905092054 23 0 0.0 1.6 0.00 0.00 0.00 96 1013.4
20260905091558 23 0 0.0 0.0 0.00 0.00 0.00 96 1013.4